This is the latest recevied weather packets stored in our database for station/object N9GKE-1. If no packets are shown the sender has not sent any weather packets the latest 10 day(s).
| Time | Temp. | Humidity | Pressure | Rain* | Wind** | Luminosity | Snow |
|---|---|---|---|---|---|---|---|
| 1778170750 | 13.89° C | 45% | 1015.9 hPa | 0 mm | - | - | - |
| 1778170294 | 13.89° C | 43% | 1015.9 hPa | 0 mm | - | - | - |
| 1778170149 | 13.33° C | 44% | 1016 hPa | 0 mm | - | - | - |
| 1778169695 | 13.33° C | 44% | 1016 hPa | 0 mm | - | - | - |
| 1778169551 | 13.33° C | 43% | 1016 hPa | 0 mm | - | - | - |
| 1778169095 | 13.33° C | 44% | 1016.1 hPa | 0 mm | - | - | - |
| 1778168951 | 13.33° C | 47% | 1016.1 hPa | 0 mm | - | - | - |
| 1778168495 | 13.33° C | 44% | 1016.2 hPa | 0 mm | - | - | - |
| 1778168349 | 13.33° C | 46% | 1016.2 hPa | 0 mm | - | - | - |
| 1778167894 | 13.33° C | 42% | 1016.3 hPa | 0 mm | - | - | - |
| 1778167751 | 13.33° C | 45% | 1016.4 hPa | 0 mm | - | - | - |
| 1778167294 | 12.78° C | 44% | 1016.3 hPa | 0 mm | - | - | - |
| 1778167149 | 12.78° C | 46% | 1016.4 hPa | 0 mm | - | - | - |
| 1778166694 | 12.78° C | 45% | 1016.3 hPa | 0 mm | - | - | - |
| 1778166549 | 12.78° C | 47% | 1016.3 hPa | 0 mm | - | - | - |
| 1778166094 | 12.22° C | 43% | 1016.2 hPa | 0 mm | - | - | - |
| 1778165951 | 12.22° C | 43% | 1016.2 hPa | 0 mm | - | - | - |
| 1778165494 | 12.22° C | 47% | 1016.2 hPa | 0 mm | - | - | - |
| 1778165350 | 12.22° C | 45% | 1016.2 hPa | 0 mm | - | - | - |
| 1778164896 | 12.22° C | 46% | 1016.2 hPa | 0 mm | - | - | - |
| 1778164751 | 12.22° C | 48% | 1016.2 hPa | 0 mm | - | - | - |
| 1778164295 | 11.67° C | 51% | 1016 hPa | 0 mm | - | - | - |
| 1778164150 | 11.67° C | 54% | 1016 hPa | 0 mm | - | - | - |
| 1778163695 | 11.67° C | 50% | 1016 hPa | 0 mm | - | - | - |
| 1778163549 | 11.67° C | 51% | 1015.9 hPa | 0 mm | - | - | - |
* Rain latest hour (hover to see other rain measurements)
** Current wind speed in m/s (hover to see current wind gust speed)